[[{"header":{"parameterUnit":"m.s-1","parameterCategory":1,"la1":30.2991,"la2":30.254,"lo1":-89.0895,"lo2":-89.0444,"dy":0.0017,"dx":0.0017,"nx":28,"ny":28,"refTime":"2024-10-17T03:00:00:Z","depth":0,"parameterNumber":2,"parameterNumberName":"U-component_of_WINDS"},"data":[0,0,0,0,0,0,0,0,0,0,0,0,0,0,0,0,0,0,0,0,0,0,0,0,0,0,0,0,0,0,0,0,0,0,0,0,0,0,0,0,0,0,0,0,0,0,0,0,0,0,0,0,0,0,0,0,0,0,-5.231,-5.231,0,-5.2288,-5.2288,-5.2288,-5.2153,-5.215,-5.2147,-5.2143,-5.2122,-5.2125,-5.2127,0,0,0,0,0,0,0,0,0,0,0,0,0,-5.2239,-5.2241,-5.231,-5.231,-5.231,-5.2288,-5.2288,-5.2287,-5.2154,-5.215,-5.2146,-5.2142,-5.2122,-5.2125,-5.2128,0,0,0,0,0,0,0,0,0,0,0,0,0,-5.2249,-5.2242,-5.231,-5.224,-5.2234,-5.2288,-5.2288,-5.2287,-5.2154,-5.215,-5.2145,-5.214,-5.2121,-5.2124,-5.2128,-5.2248,0,0,-5.2139,-5.2141,0,0,0,0,0,0,0,0,-5.2249,-5.2252,-5.2251,-5.2245,-5.2238,-5.2218,-5.2255,-5.2274,-5.2156,-5.2185,-5.2143,-5.2138,-5.2158,-5.2159,-5.2165,-5.2247,-5.2246,-5.214,-5.2142,-5.2143,-5.2144,0,0,0,0,0,0,0,-5.2248,-5.2252,-5.2301,-5.2251,-5.2243,-5.2211,-5.2207,-5.2258,-5.2199,-5.2182,-5.2172,-5.2171,-5.2154,-5.2162,-5.2164,-5.2246,-5.2139,-5.2143,-5.2145,-5.2146,-5.2427,-5.2432,0,0,0,0,0,0,-5.2257,-5.2252,-5.2302,-5.2301,-5.2232,-5.2216,-5.2212,-5.223,-5.2198,-5.2189,-5.2175,-5.2165,-5.2158,-5.216,-5.2163,-5.2301,-5.2143,-5.2147,-5.2149,-5.2421,-5.2428,-5.2433,0,0,0,0,0,0,-5.2256,-5.2263,-5.2303,-5.2274,-5.2277,-5.2222,-5.2244,-5.2232,-5.2239,-5.2193,-5.2182,-5.2194,-5.2154,-5.2157,-5.2228,-5.2299,-5.2148,-5.2152,-5.2415,-5.2423,-5.2431,-5.258,0,0,0,0,0,0,-5.2255,-5.2263,-5.2308,-5.2276,-5.2279,-5.2369,-5.2248,-5.2235,-5.2246,-5.2232,-5.2208,-5.2199,-5.2151,-5.2223,-5.2232,-5.2301,-5.2155,-5.2409,-5.2419,-5.2428,-5.2569,-5.2592,-5.2612,0,0,0,0,0,-5.2253,-5.2351,-5.2311,-5.2317,-5.2333,-5.2373,-5.2374,-5.2316,-5.2252,-5.2297,-5.2268,-5.22,-5.229,-5.2232,-5.224,-5.2312,-5.2404,-5.2416,-5.2427,-5.2559,-5.2588,-5.2612,0,0,0,0,0,0,-5.2393,-5.2345,-5.23,-5.2391,-5.2387,-5.235,-5.2404,-5.2348,-5.2362,-5.2349,-5.2276,-5.2272,-5.2354,-5.234,-5.2275,-5.2427,-5.2335,-5.235,-5.2433,-5.2459,-5.2481,-5.2482,-5.2158,0,0,0,0,0,-5.2434,-5.247,-5.2427,-5.2511,-5.2512,-5.2459,-5.2474,-5.243,-5.2422,-5.242,-5.2396,-5.2392,-5.2419,-5.2439,-5.2461,-5.2567,-5.256,-5.262,-5.2642,-5.266,-5.2673,-5.2728,-5.2754,-5.2472,-5.2472,-5.2472,0,0,-5.252,-5.2499,-5.2526,-5.2539,-5.253,-5.257,-5.2458,-5.2504,-5.2533,-5.2427,-5.2492,-5.2475,-5.2466,-5.2555,-5.2592,-5.2545,-5.275,-5.2675,-5.269,-5.2692,-5.2743,-5.2769,-5.2793,-5.248,-5.2479,-5.2477,0,0,-5.2696,-5.2684,-5.2753,-5.2747,-5.2735,-5.27,-5.2717,-5.2689,-5.2673,-5.2737,-5.2659,-5.2693,-5.2741,-5.2738,-5.2743,-5.2921,-5.286,-5.2931,-5.3044,-5.3099,-5.3121,-5.314,-5.3204,-5.3227,-5.2944,-5.2944,-5.2944,0,-5.2804,-5.2859,-5.2795,-5.2847,-5.2855,-5.2762,-5.2832,-5.2829,-5.2827,-5.2835,-5.2783,-5.2842,-5.283,-5.2916,-5.296,-5.2967,-5.2985,-5.2932,-5.3123,-5.3142,-5.3159,-5.3218,-5.3242,-5.2953,-5.2952,-5.2951,-5.295,0,-5.2993,-5.3033,-5.309,-5.3089,-5.3104,-5.3165,-5.3111,-5.3134,-5.3089,-5.306,-5.3127,-5.311,-5.3127,-5.3145,-5.3101,-5.3226,-5.3197,-5.3136,-5.3042,-5.3195,-5.325,-5.3272,-5.2965,-5.2962,-5.296,-5.2957,0,0,-5.3254,-5.3219,-5.3241,-5.324,-5.3221,-5.3251,-5.3309,-5.3325,-5.3347,-5.3349,-5.3395,-5.3439,-5.3382,-5.3388,-5.3344,-5.3392,-5.3534,-5.3323,-5.3322,-5.3363,-5.3671,-5.3717,-5.3744,-5.3494,-5.3498,-5.3501,-5.3671,0,-5.3423,-5.3517,-5.3462,-5.3564,-5.3601,-5.3514,-5.3564,-5.3559,-5.3533,-5.3561,-5.3533,-5.3566,-5.3488,-5.3491,-5.3535,-5.3507,-5.3595,-5.3495,-5.3536,-5.3539,-5.354,-5.3773,-5.3821,-5.3982,-5.3692,-5.3696,-5.3698,0,-5.3631,-5.3642,-5.3748,-5.3724,-5.3737,-5.3782,-5.3794,-5.3822,-5.3815,-5.3793,-5.3801,-5.3745,-5.3801,-5.371,-5.3785,-5.3719,-5.3733,-5.3723,-5.3727,-5.3728,-5.3627,-5.3779,-5.4032,-5.4056,-5.3731,-5.3729,-5.3726,0,-5.381,-5.3852,-5.392,-5.3922,-5.3896,-5.393,-5.3921,-5.3909,-5.3923,-5.3934,-5.3943,-5.396,-5.397,-5.3986,-5.3937,-5.3875,-5.4019,-5.3924,-5.4003,-5.4004,-5.4036,-5.4034,-5.4294,-5.4048,-5.4047,-5.4047,-5.4046,0,-5.4003,-5.4071,-5.4001,-5.4043,-5.4118,-5.4055,-5.4131,-5.4112,-5.4103,-5.4141,-5.4068,-5.4105,-5.4039,-5.407,-5.4033,-5.4101,-5.4106,-5.409,-5.4079,-5.4096,-5.4098,-5.4104,-5.4091,-5.4053,-5.4052,-5.405,-5.4049,0,-5.4215,-5.4171,-5.424,-5.421,-5.4204,-5.426,-5.4234,-5.4273,-5.4243,-5.4293,-5.4301,-5.4255,-5.4288,-5.4241,-5.4269,-5.4244,-5.4338,-5.4311,-5.434,-5.4332,-5.4413,-5.4406,-5.4685,-5.4718,-5.4452,-5.4454,-5.4456,0,-5.434,-5.4391,-5.4366,-5.4386,-5.4381,-5.4414,-5.4428,-5.437,-5.4388,-5.4385,-5.4424,-5.4451,-5.4469,-5.4526,-5.4496,-5.4518,-5.449,-5.4586,-5.4492,-5.4508,-5.449,-5.4487,-5.4492,-5.4605,-5.4608,-5.461,-5.4613,0,-5.4567,-5.4543,-5.4566,-5.4582,-5.4601,-5.4611,-5.4616,-5.4636,-5.4575,-5.4599,-5.4632,-5.4646,-5.4675,-5.4703,-5.4717,-5.4708,-5.4651,-5.4643,-5.4662,-5.4679,-5.4694,-5.4686,-5.4392,-5.4636,-5.4634,-5.4632,-5.4631,-5.463,-5.4739,-5.478,-5.4769,-5.4798,-5.4795,-5.4802,-5.4836,-5.4812,-5.4838,-5.4856,-5.4821,-5.4863,-5.4856,-5.4869,-5.4867,-5.49,-5.4858,-5.4886,-5.4893,-5.49,-5.4913,-5.469,-5.4902,-5.4902,-5.4901,-5.49,-5.49,0,-5.4961,-5.4951,-5.4978,-5.4986,-5.5009,-5.4953,-5.4956,-5.4979,-5.5017,-5.5015,-5.5035,-5.5073,-5.5101,-5.5073,-5.5096,-5.5127,-5.5102,-5.5135,-5.5131,-5.513,-5.4949,-5.493,-5.5155,-5.5155,-5.5155,-5.5155,-5.5155,-5.5155,-5.5079,-5.5146,-5.5121,-5.5187,-5.5175,-5.5215,-5.5222,-5.5228,-5.5226,-5.5272,-5.5294,-5.5277,-5.5265,-5.5286,-5.5309,-5.5301,-5.5312,-5.5355,-5.5337,-5.5168,-5.5143,-5.5119,-5.51,-5.5358,-5.5358,-5.5515,-5.5517,-5.5518]},{"header":{"parameterUnit":"m.s-1","parameterCategory":1,"la1":30.2991,"la2":30.254,"lo1":-89.0895,"lo2":-89.0444,"dy":0.0017,"dx":0.0017,"nx":28,"ny":28,"refTime":"2024-10-17T03:00:00:Z","depth":0,"parameterNumber":3,"parameterNumberName":"V-component_of_WINDS"},"data":[0,0,0,0,0,0,0,0,0,0,0,0,0,0,0,0,0,0,0,0,0,0,0,0,0,0,0,0,0,0,0,0,0,0,0,0,0,0,0,0,0,0,0,0,0,0,0,0,0,0,0,0,0,0,0,0,0,0,-0.3067,-0.3067,0,-0.3064,-0.3064,-0.3064,-0.3019,-0.3018,-0.3017,-0.3016,-0.3015,-0.3016,-0.3017,0,0,0,0,0,0,0,0,0,0,0,0,0,-0.3036,-0.3037,-0.3067,-0.3067,-0.3067,-0.3064,-0.3064,-0.3064,-0.3019,-0.3018,-0.3017,-0.3015,-0.3014,-0.3016,-0.3017,0,0,0,0,0,0,0,0,0,0,0,0,0,-0.3043,-0.3037,-0.3067,-0.3045,-0.3043,-0.3064,-0.3064,-0.3064,-0.302,-0.3018,-0.3016,-0.3015,-0.3014,-0.3016,-0.3017,-0.3061,0,0,-0.3022,-0.3022,0,0,0,0,0,0,0,0,-0.3043,-0.3044,-0.3048,-0.3046,-0.3044,-0.304,-0.3053,-0.3063,-0.302,-0.3028,-0.3016,-0.3014,-0.3025,-0.3025,-0.3029,-0.3061,-0.3061,-0.3022,-0.3023,-0.3024,-0.3024,0,0,0,0,0,0,0,-0.3043,-0.3044,-0.3066,-0.3048,-0.3046,-0.3035,-0.3034,-0.3054,-0.3036,-0.3028,-0.3024,-0.3024,-0.3023,-0.3027,-0.3028,-0.3061,-0.3022,-0.3023,-0.3024,-0.3025,-0.3128,-0.313,0,0,0,0,0,0,-0.3045,-0.3044,-0.3066,-0.3066,-0.3039,-0.3037,-0.3036,-0.3043,-0.3036,-0.3033,-0.3026,-0.3022,-0.3025,-0.3026,-0.3028,-0.3078,-0.3024,-0.3025,-0.3026,-0.3126,-0.3128,-0.313,0,0,0,0,0,0,-0.3044,-0.3047,-0.3066,-0.3054,-0.3056,-0.3039,-0.3048,-0.3044,-0.3048,-0.3035,-0.3031,-0.3033,-0.3024,-0.3026,-0.3053,-0.3078,-0.3026,-0.3027,-0.3124,-0.3127,-0.3129,-0.318,0,0,0,0,0,0,-0.3044,-0.3047,-0.3064,-0.3055,-0.3057,-0.3091,-0.3049,-0.3045,-0.305,-0.3046,-0.304,-0.3038,-0.3023,-0.3051,-0.3054,-0.3079,-0.3028,-0.3122,-0.3125,-0.3128,-0.3176,-0.3184,-0.3191,0,0,0,0,0,-0.3043,-0.3079,-0.3065,-0.3068,-0.3077,-0.3093,-0.3094,-0.3075,-0.3053,-0.3069,-0.306,-0.3038,-0.3074,-0.3054,-0.3057,-0.3083,-0.312,-0.3124,-0.3128,-0.3173,-0.3183,-0.3191,0,0,0,0,0,0,-0.3093,-0.3078,-0.3062,-0.3096,-0.3096,-0.3085,-0.3105,-0.3086,-0.3093,-0.3088,-0.3065,-0.3064,-0.3095,-0.3091,-0.3069,-0.3125,-0.3093,-0.3098,-0.3126,-0.3135,-0.3143,-0.3143,-0.303,0,0,0,0,0,-0.3108,-0.3121,-0.3107,-0.3139,-0.314,-0.3123,-0.3129,-0.3114,-0.3113,-0.3113,-0.3106,-0.3107,-0.3118,-0.3126,-0.3136,-0.3175,-0.3173,-0.3194,-0.3202,-0.3208,-0.3213,-0.3233,-0.3242,-0.3144,-0.3144,-0.3143,0,0,-0.3139,-0.3132,-0.3143,-0.3149,-0.3147,-0.3162,-0.3123,-0.3141,-0.3152,-0.3116,-0.3141,-0.3136,-0.3135,-0.3168,-0.3182,-0.3166,-0.324,-0.3213,-0.3218,-0.322,-0.3238,-0.3247,-0.3256,-0.3146,-0.3146,-0.3145,0,0,-0.3204,-0.32,-0.3226,-0.3224,-0.3221,-0.3209,-0.3215,-0.3207,-0.3202,-0.3226,-0.3199,-0.3212,-0.3232,-0.3232,-0.3235,-0.3297,-0.3277,-0.3301,-0.3341,-0.336,-0.3368,-0.3375,-0.3397,-0.3406,-0.3306,-0.3306,-0.3306,0,-0.3244,-0.3264,-0.3242,-0.3261,-0.3264,-0.3231,-0.3257,-0.3256,-0.3257,-0.3261,-0.3242,-0.3266,-0.3263,-0.3295,-0.331,-0.3313,-0.332,-0.3302,-0.3369,-0.3375,-0.3381,-0.3402,-0.3411,-0.3309,-0.3308,-0.3308,-0.3308,0,-0.3313,-0.3328,-0.3349,-0.3349,-0.3355,-0.3377,-0.3358,-0.3367,-0.3351,-0.3341,-0.3365,-0.336,-0.3368,-0.3374,-0.336,-0.3404,-0.3394,-0.3373,-0.3341,-0.3394,-0.3413,-0.3421,-0.3313,-0.3312,-0.3311,-0.331,0,0,-0.3412,-0.3397,-0.3405,-0.3404,-0.3398,-0.3409,-0.3429,-0.3436,-0.3443,-0.3445,-0.3461,-0.3478,-0.3458,-0.3461,-0.3445,-0.3462,-0.3512,-0.3439,-0.3438,-0.3453,-0.3561,-0.3578,-0.3587,-0.3498,-0.3499,-0.3501,-0.3561,0,-0.3474,-0.3508,-0.3487,-0.3524,-0.3537,-0.3505,-0.3523,-0.3521,-0.3511,-0.3521,-0.3511,-0.3524,-0.3495,-0.3497,-0.3512,-0.3503,-0.3534,-0.3498,-0.3514,-0.3515,-0.3516,-0.3598,-0.3616,-0.3673,-0.3568,-0.357,-0.3571,0,-0.3552,-0.3555,-0.3593,-0.3583,-0.3587,-0.3604,-0.3607,-0.3617,-0.3614,-0.3606,-0.3608,-0.3588,-0.3608,-0.3575,-0.3602,-0.3578,-0.3583,-0.3579,-0.3581,-0.3582,-0.3547,-0.3602,-0.3691,-0.37,-0.3582,-0.3581,-0.3581,0,-0.362,-0.3634,-0.3658,-0.3658,-0.3647,-0.3659,-0.3654,-0.3649,-0.3654,-0.3657,-0.366,-0.3666,-0.3669,-0.3674,-0.3656,-0.3634,-0.3685,-0.3651,-0.3679,-0.368,-0.3693,-0.3692,-0.3784,-0.3695,-0.3695,-0.3694,-0.3694,0,-0.3693,-0.3718,-0.3688,-0.3704,-0.373,-0.3705,-0.3732,-0.3725,-0.372,-0.3733,-0.3705,-0.3719,-0.3694,-0.3704,-0.369,-0.3714,-0.3716,-0.371,-0.3707,-0.3713,-0.3714,-0.3717,-0.3713,-0.3697,-0.3696,-0.3696,-0.3695,0,-0.3774,-0.3755,-0.378,-0.3766,-0.3763,-0.3783,-0.3771,-0.3785,-0.3772,-0.3789,-0.3792,-0.3774,-0.3784,-0.3766,-0.3776,-0.3766,-0.3799,-0.3789,-0.3801,-0.3798,-0.3827,-0.3825,-0.3925,-0.3937,-0.3839,-0.384,-0.3841,0,-0.3822,-0.384,-0.3827,-0.3834,-0.3831,-0.3841,-0.3845,-0.3821,-0.3827,-0.3823,-0.3837,-0.3845,-0.3851,-0.387,-0.3858,-0.3864,-0.3854,-0.3889,-0.3855,-0.3861,-0.3855,-0.3854,-0.3856,-0.3896,-0.3897,-0.3898,-0.3899,0,-0.3909,-0.3899,-0.3905,-0.3908,-0.3914,-0.3915,-0.3915,-0.3922,-0.3896,-0.3904,-0.3914,-0.3918,-0.3926,-0.3935,-0.3938,-0.3934,-0.3913,-0.3909,-0.3916,-0.3924,-0.393,-0.3927,-0.382,-0.3908,-0.3907,-0.3906,-0.3906,-0.3905,-0.3976,-0.399,-0.3983,-0.3991,-0.3987,-0.3987,-0.3999,-0.3987,-0.3995,-0.3999,-0.3984,-0.3998,-0.3993,-0.3995,-0.3993,-0.4003,-0.3988,-0.3998,-0.4001,-0.4004,-0.4008,-0.3927,-0.4003,-0.4003,-0.4003,-0.4003,-0.4003,0,-0.4062,-0.4055,-0.4062,-0.4062,-0.4068,-0.4045,-0.4043,-0.405,-0.4062,-0.4059,-0.4064,-0.4075,-0.4083,-0.407,-0.4076,-0.4087,-0.4077,-0.4089,-0.4088,-0.4088,-0.4022,-0.4015,-0.4097,-0.4097,-0.4097,-0.4097,-0.4097,-0.4097,-0.4107,-0.4129,-0.4118,-0.4138,-0.4131,-0.4143,-0.4144,-0.4144,-0.4141,-0.4154,-0.416,-0.4151,-0.4144,-0.4149,-0.4155,-0.4151,-0.4154,-0.417,-0.4163,-0.4102,-0.4093,-0.4084,-0.4078,-0.4171,-0.4171,-0.4228,-0.4229,-0.4229]}]]